datetime,total release
1962-11-01,392.0
1962-11-02,113.0
1962-11-03,98.0
1962-11-04,115.0
1962-11-05,103.0
1962-11-06,85.0
1962-11-07,85.0
1962-11-08,89.0
1962-11-09,94.0
1962-11-10,96.0
1962-11-11,98.0
1962-11-12,76.0
1962-11-13,40.0000038
1962-11-14,40.0000038
1962-11-15,40.0000038
1962-11-16,59.0
1962-11-17,72.0
1962-11-18,72.0
1962-11-19,75.0
1962-11-20,78.0
1962-11-21,75.0
1962-11-22,75.0
1962-11-23,75.0
1962-11-24,77.0
1962-11-25,77.0
1962-11-26,77.0
1962-11-27,78.0
1962-11-28,82.0
1962-11-29,82.0
1962-11-30,82.0
1962-12-01,80.0000076
1962-12-02,80.0000076
1962-12-03,80.0000076
1962-12-04,80.0000076
1962-12-05,80.0000076
1962-12-06,82.0
1962-12-07,84.0
1962-12-08,84.0
1962-12-09,84.0
1962-12-10,125.0
1962-12-11,137.0
1962-12-12,137.0
1962-12-13,137.0
1962-12-14,137.0
1962-12-15,137.0
1962-12-16,137.0
1962-12-17,320.000031
1962-12-18,451.0
1962-12-19,451.0
1962-12-20,451.0
1962-12-21,451.0
1962-12-22,455.0
1962-12-23,455.0
1962-12-24,459.0
1962-12-25,459.0
1962-12-26,451.0
1962-12-27,447.0
1962-12-28,447.0
1962-12-29,447.0
1962-12-30,447.0
1962-12-31,447.0
1963-01-01,447.0
1963-01-02,389.0
1963-01-03,347.0
1963-01-04,347.0
1963-01-05,351.0
1963-01-06,351.0
1963-01-07,351.0
1963-01-08,355.0
1963-01-09,355.0
1963-01-10,362.0
1963-01-11,366.0
1963-01-12,366.0
1963-01-13,366.0
1963-01-14,362.0
1963-01-15,362.0
1963-01-16,362.0
1963-01-17,366.0
1963-01-18,366.0
1963-01-19,366.0
1963-01-20,366.0
1963-01-21,366.0
1963-01-22,366.0
1963-01-23,366.0
1963-01-24,366.0
1963-01-25,370.0
1963-01-26,370.0
1963-01-27,374.0
1963-01-28,378.0
1963-01-29,378.0
1963-01-30,378.0
1963-01-31,374.0
1963-02-01,374.0
1963-02-02,374.0
1963-02-03,374.0
1963-02-04,374.0
1963-02-05,370.0
1963-02-06,370.0
1963-02-07,370.0
1963-02-08,419.0
1963-02-09,497.0
1963-02-10,497.0
1963-02-11,501.0
1963-02-12,501.0
1963-02-13,505.0
1963-02-14,505.0
1963-02-15,497.0
1963-02-16,510.0
1963-02-17,510.0
1963-02-18,514.0
1963-02-19,514.0
1963-02-20,518.0
1963-02-21,518.0
1963-02-22,518.0
1963-02-23,522.0
1963-02-24,527.0
1963-02-25,527.0
1963-02-26,531.0
1963-02-27,535.0
1963-02-28,317.0
1963-03-01,134.0
1963-03-02,137.0
1963-03-03,142.0
1963-03-04,142.0
1963-03-05,134.0
1963-03-06,109.0
1963-03-07,98.0
1963-03-08,98.0
1963-03-09,96.0
1963-03-10,96.0
1963-03-11,94.0
1963-03-12,92.0
1963-03-13,92.0
1963-03-14,94.0
1963-03-15,94.0
1963-03-16,94.0
1963-03-17,94.0
1963-03-18,94.0
1963-03-19,96.0
1963-03-20,82.0
1963-03-21,98.0
1963-03-22,82.0
1963-03-23,96.0
1963-03-24,96.0
1963-03-25,98.0
1963-03-26,96.0
1963-03-27,69.0
1963-03-28,82.0
1963-03-29,108.0
1963-03-30,169.0
1963-03-31,169.0
1963-04-01,158.0
1963-04-02,158.0
1963-04-03,169.0
1963-04-04,172.0
1963-04-05,141.0
1963-04-06,115.0
1963-04-07,117.0
1963-04-08,117.0
1963-04-09,117.0
1963-04-10,117.0
1963-04-11,117.0
1963-04-12,111.0
1963-04-13,100.0
1963-04-14,100.0
1963-04-15,98.0
1963-04-16,98.0
1963-04-17,98.0
1963-04-18,96.0
1963-04-19,123.0
1963-04-20,150.0
1963-04-21,144.0
1963-04-22,134.0
1963-04-23,137.0
1963-04-24,139.0
1963-04-25,150.0
1963-04-26,150.0
1963-04-27,147.0
1963-04-28,147.0
1963-04-29,179.0
1963-04-30,212.0
1963-05-01,158.0
1963-05-02,134.0
1963-05-03,134.0
1963-05-04,134.0
1963-05-05,134.0
1963-05-06,134.0
1963-05-07,134.0
1963-05-08,139.0
1963-05-09,137.0
1963-05-10,134.0
1963-05-11,134.0
1963-05-12,132.0
1963-05-13,134.0
1963-05-14,132.0
1963-05-15,124.0
1963-05-16,120.0
1963-05-17,115.0
1963-05-18,117.0
1963-05-19,117.0
1963-05-20,120.0
1963-05-21,120.0
1963-05-22,120.0
1963-05-23,120.0
1963-05-24,120.0
1963-05-25,122.0
1963-05-26,122.0
1963-05-27,117.0
1963-05-28,117.0
1963-05-29,129.0
1963-05-30,169.0
1963-05-31,163.0
1963-06-01,152.0
1963-06-02,152.0
1963-06-03,147.0
1963-06-04,144.0
1963-06-05,127.0
1963-06-06,120.0
1963-06-07,120.0
1963-06-08,122.0
1963-06-09,122.0
1963-06-10,122.0
1963-06-11,122.0
1963-06-12,122.0
1963-06-13,122.0
1963-06-14,120.0
1963-06-15,117.0
1963-06-16,117.0
1963-06-17,120.0
1963-06-18,122.0
1963-06-19,120.0
1963-06-20,117.0
1963-06-21,117.0
1963-06-22,120.0
1963-06-23,122.0
1963-06-24,127.0
1963-06-25,132.0
1963-06-26,129.0
1963-06-27,117.0
1963-06-28,117.0
1963-06-29,117.0
1963-06-30,122.0
1963-07-01,122.0
1963-07-02,115.0
1963-07-03,104.0
1963-07-04,102.0
1963-07-05,104.0
1963-07-06,104.0
1963-07-07,106.0
1963-07-08,109.0
1963-07-09,109.0
1963-07-10,106.0
1963-07-11,104.0
1963-07-12,104.0
1963-07-13,104.0
1963-07-14,104.0
1963-07-15,106.0
1963-07-16,106.0
1963-07-17,106.0
1963-07-18,106.0
1963-07-19,111.0
1963-07-20,111.0
1963-07-21,111.0
1963-07-22,111.0
1963-07-23,109.0
1963-07-24,111.0
1963-07-25,102.0
1963-07-26,91.0
1963-07-27,91.0
1963-07-28,91.0
1963-07-29,91.0
1963-07-30,91.0
1963-07-31,92.0
1963-08-01,98.0
1963-08-02,98.0
1963-08-03,98.0
1963-08-04,98.0
1963-08-05,98.0
1963-08-06,98.0
1963-08-07,96.0
1963-08-08,94.0
1963-08-09,98.0
1963-08-10,100.0
1963-08-11,100.0
1963-08-12,100.0
1963-08-13,100.0
1963-08-14,100.0
1963-08-15,102.0
1963-08-16,105.0
1963-08-17,106.0
1963-08-18,106.0
1963-08-19,104.0
1963-08-20,96.0
1963-08-21,92.0
1963-08-22,94.0
1963-08-23,98.0
1963-08-24,102.0
1963-08-25,104.0
1963-08-26,104.0
1963-08-27,104.0
1963-08-28,111.0
1963-08-29,113.0
1963-08-30,115.0
1963-08-31,115.0
1963-09-01,115.0
1963-09-02,113.0
1963-09-03,102.0
1963-09-04,89.0
1963-09-05,80.0000076
1963-09-06,89.0
1963-09-07,104.0
1963-09-08,104.0
1963-09-09,98.0
1963-09-10,94.0
1963-09-11,92.0
1963-09-12,95.0
1963-09-13,102.0
1963-09-14,100.0
1963-09-15,102.0
1963-09-16,102.0
1963-09-17,100.0
1963-09-18,108.0
1963-09-19,124.0
1963-09-20,127.0
1963-09-21,129.0
1963-09-22,132.0
1963-09-23,132.0
1963-09-24,134.0
1963-09-25,173.0
1963-09-26,154.0
1963-09-27,122.0
1963-09-28,120.0
1963-09-29,122.0
1963-09-30,124.0
1963-10-01,175.0
1963-10-02,115.0
1963-10-03,120.0
1963-10-04,120.0
1963-10-05,120.0
1963-10-06,110.0
1963-10-07,110.0
1963-10-08,90.0
1963-10-09,130.0
1963-10-10,130.0
1963-10-11,120.0
1963-10-12,110.0
1963-10-13,110.0
1963-10-14,130.0
1963-10-15,130.0
1963-10-16,125.0
1963-10-17,120.0
1963-10-18,100.0
1963-10-19,125.0
1963-10-20,125.0
1963-10-21,125.0
1963-10-22,125.0
1963-10-23,156.0
1963-10-24,135.0
1963-10-25,137.0
1963-10-26,140.0
1963-10-27,140.0
1963-10-28,143.0
1963-10-29,125.0
1963-10-30,140.0
1963-10-31,197.0
1963-11-01,191.0
1963-11-02,189.0
1963-11-03,191.0
1963-11-04,200.0
1963-11-05,197.0
1963-11-06,197.0
1963-11-07,211.0
1963-11-08,707.0
1963-11-09,862.0
1963-11-10,220.0
1963-11-11,199.0
1963-11-12,172.0
1963-11-13,176.0
1963-11-14,209.0
1963-11-15,310.0
1963-11-16,364.0
1963-11-17,366.0
1963-11-18,260.0
1963-11-19,270.0
1963-11-20,330.0
1963-11-21,383.0
1963-11-22,376.0
1963-11-23,342.0
1963-11-24,340.0
1963-11-25,340.0
1963-11-26,526.0
1963-11-27,327.0
1963-11-28,286.0
1963-11-29,288.0
1963-11-30,322.0
1963-12-01,336.0
1963-12-02,319.0
1963-12-03,397.0
1963-12-04,422.0
1963-12-05,428.0
1963-12-06,420.0
1963-12-07,428.0
1963-12-08,406.0
1963-12-09,560.0
1963-12-10,696.0
1963-12-11,901.0
1963-12-12,944.0
1963-12-13,1060.0
1963-12-14,1100.0
1963-12-15,838.0
1963-12-16,830.0
1963-12-17,826.0
1963-12-18,765.000061
1963-12-19,818.0
1963-12-20,871.0
1963-12-21,854.0
1963-12-22,853.0
1963-12-23,867.0
1963-12-24,888.0
1963-12-25,902.0
1963-12-26,887.0
1963-12-27,760.0
1963-12-28,894.0
1963-12-29,899.0
1963-12-30,975.0
1963-12-31,890.0
1964-01-01,851.0
1964-01-02,852.0
1964-01-03,850.0
1964-01-04,858.0
1964-01-05,847.0
1964-01-06,980.0
1964-01-07,1010.0
1964-01-08,1010.0
1964-01-09,1010.0
1964-01-10,1030.0
1964-01-11,1020.0
1964-01-12,1010.0
1964-01-13,982.0
1964-01-14,1000.0
1964-01-15,980.0
1964-01-16,992.0
1964-01-17,1040.0
1964-01-18,1020.0
1964-01-19,981.0
1964-01-20,1000.0
1964-01-21,902.0
1964-01-22,875.0
1964-01-23,877.0
1964-01-24,882.0
1964-01-25,892.0
1964-01-26,879.0
1964-01-27,938.0
1964-01-28,968.0
1964-01-29,950.0
1964-01-30,961.0
1964-01-31,965.0
1964-02-01,961.0
1964-02-02,950.0
1964-02-03,968.0
1964-02-04,1010.0
1964-02-05,1010.0
1964-02-06,958.0
1964-02-07,972.0
1964-02-08,949.0
1964-02-09,925.0
1964-02-10,969.0
1964-02-11,1230.0
1964-02-12,1190.0
1964-02-13,925.0
1964-02-14,906.0
1964-02-15,945.0
1964-02-16,912.0
1964-02-17,982.0
1964-02-18,997.0
1964-02-19,776.0
1964-02-20,956.0
1964-02-21,970.0
1964-02-22,974.0
1964-02-23,967.0
1964-02-24,978.0
1964-02-25,931.0
1964-02-26,920.0
1964-02-27,979.0
1964-02-28,914.0
1964-02-29,899.0
1964-03-01,583.0
1964-03-02,600.0
1964-03-03,615.0
1964-03-04,623.0
1964-03-05,606.0
1964-03-06,606.0
1964-03-07,600.0
1964-03-08,612.0
1964-03-09,596.0
1964-03-10,613.0
1964-03-11,640.000061
1964-03-12,614.0
1964-03-13,619.0
1964-03-14,602.0
1964-03-15,607.0
1964-03-16,618.0
1964-03-17,592.0
1964-03-18,585.0
1964-03-19,601.0
1964-03-20,598.0
1964-03-21,592.0
1964-03-22,587.0
1964-03-23,602.0
1964-03-24,602.0
1964-03-25,608.0
1964-03-26,591.0
1964-03-27,590.0
1964-03-28,557.0
1964-03-29,558.0
1964-03-30,562.0
1964-03-31,578.0
1964-04-01,593.0
1964-04-02,590.0
1964-04-03,585.0
1964-04-04,557.0
1964-04-05,556.0
1964-04-06,569.0
1964-04-07,570.0
1964-04-08,587.0
1964-04-09,598.0
1964-04-10,576.0
1964-04-11,562.0
1964-04-12,573.0
1964-04-13,589.0
1964-04-14,590.0
1964-04-15,580.0
1964-04-16,562.0
1964-04-17,564.0
1964-04-18,720.0
1964-04-19,677.0
1964-04-20,605.0
1964-04-21,480.0
1964-04-22,468.0
1964-04-23,547.0
1964-04-24,569.0
1964-04-25,595.0
1964-04-26,608.0
1964-04-27,667.0
1964-04-28,639.0
1964-04-29,649.0
1964-04-30,589.0
1964-05-01,615.0
1964-05-02,836.0
1964-05-03,814.0
1964-05-04,765.000061
1964-05-05,762.0
1964-05-06,855.0
1964-05-07,913.0
1964-05-08,1090.0
1964-05-09,1200.0
1964-05-10,987.0
1964-05-11,1260.0
1964-05-12,1280.00012
1964-05-13,1250.0
1964-05-14,1260.0
1964-05-15,1210.0
1964-05-16,1170.0
1964-05-17,1120.0
1964-05-18,1570.0
1964-05-19,2100.0
1964-05-20,2070.0
1964-05-21,2090.0
1964-05-22,2100.0
1964-05-23,1970.0
1964-05-24,1920.0
1964-05-25,2150.0
1964-05-26,2070.0
1964-05-27,2190.0
1964-05-28,2150.0
1964-05-29,2140.0
1964-05-30,2010.0
1964-05-31,1880.0
1964-06-01,1840.0
1964-06-02,1890.0
1964-06-03,1830.0
1964-06-04,1580.0
1964-06-05,1650.0
1964-06-06,1150.0
1964-06-07,991.0
1964-06-08,1630.0
1964-06-09,1640.0
1964-06-10,1640.0
1964-06-11,1520.0
1964-06-12,1310.0
1964-06-13,1150.0
1964-06-14,1020.0
1964-06-15,1260.0
1964-06-16,1270.0
1964-06-17,1230.0
1964-06-18,1280.00012
1964-06-19,1290.0
1964-06-20,1140.0
1964-06-21,1170.0
1964-06-22,1290.0
1964-06-23,1380.0
1964-06-24,1370.0
1964-06-25,1380.0
1964-06-26,1380.0
1964-06-27,1740.0
1964-06-28,1620.0
1964-06-29,1820.0
1964-06-30,1920.0
1964-07-01,1880.0
1964-07-02,1810.0
1964-07-03,1820.0
1964-07-04,1610.0
1964-07-05,1620.0
1964-07-06,2100.0
1964-07-07,2540.0
1964-07-08,2600.0
1964-07-09,2650.0
1964-07-10,2600.0
1964-07-11,2390.0
1964-07-12,2210.0
1964-07-13,3160.0
1964-07-14,3390.0
1964-07-15,3020.0
1964-07-16,2670.0
1964-07-17,2330.0
1964-07-18,2530.0
1964-07-19,1860.0
1964-07-20,2140.0
1964-07-21,2180.0
1964-07-22,2320.0
1964-07-23,3460.0
1964-07-24,3380.0
1964-07-25,2000.0
1964-07-26,1820.0
1964-07-27,2910.0
1964-07-28,2820.0
1964-07-29,2640.0
1964-07-30,2580.0
1964-07-31,2640.0
1964-08-01,2600.0
1964-08-02,1840.0
1964-08-03,2490.0
1964-08-04,2450.0
1964-08-05,2420.0
1964-08-06,2380.0
1964-08-07,2700.0
1964-08-08,2460.0
1964-08-09,1660.0
1964-08-10,2290.0
1964-08-11,2340.0
1964-08-12,2440.0
1964-08-13,2270.0
1964-08-14,2380.0
1964-08-15,2350.0
1964-08-16,2020.0
1964-08-17,1790.0
1964-08-18,1570.0
1964-08-19,1570.0
1964-08-20,1840.0
1964-08-21,1810.0
1964-08-22,1840.0
1964-08-23,1510.0
1964-08-24,1900.0
1964-08-25,1680.0
1964-08-26,1670.0
1964-08-27,1690.0
1964-08-28,1630.0
1964-08-29,1560.0
1964-08-30,817.0
1964-08-31,1770.0
1964-09-01,1910.0
1964-09-02,1850.0
1964-09-03,1940.0
1964-09-04,1940.0
1964-09-05,958.0
1964-09-06,416.0
1964-09-07,369.0
1964-09-08,1820.0
1964-09-09,2160.0
1964-09-10,2090.0
1964-09-11,2060.0
1964-09-12,1450.0
1964-09-13,892.0
1964-09-14,1950.0
1964-09-15,2040.0
1964-09-16,2050.0
1964-09-17,2030.0
1964-09-18,2200.0
1964-09-19,2110.0
1964-09-20,2050.0
1964-09-21,2780.0
1964-09-22,2800.0
1964-09-23,2900.0
1964-09-24,3100.0
1964-09-25,3190.0
1964-09-26,3470.0
1964-09-27,2830.0
1964-09-28,3550.0
1964-09-29,3510.0
1964-09-30,3570.0
1964-10-01,3510.0
1964-10-02,3580.0
1964-10-03,2220.0
1964-10-04,2050.0
1964-10-05,2050.0
1964-10-06,2400.0
1964-10-07,2460.0
1964-10-08,2500.0
1964-10-09,2500.0
1964-10-10,2340.0
1964-10-11,2200.0
1964-10-12,2610.0
1964-10-13,2620.0
1964-10-14,2750.0
1964-10-15,2760.0
1964-10-16,2700.0
1964-10-17,2420.0
1964-10-18,2500.0
1964-10-19,2740.0
1964-10-20,2770.0
1964-10-21,2510.0
1964-10-22,2700.0
1964-10-23,2760.0
1964-10-24,2650.0
1964-10-25,2380.0
1964-10-26,2670.0
1964-10-27,2460.0
1964-10-28,2450.0
1964-10-29,2410.0
1964-10-30,2770.0
1964-10-31,2620.0
1964-11-01,2440.0
1964-11-02,2820.0
1964-11-03,2260.0
1964-11-04,2150.0
1964-11-05,2130.0
1964-11-06,2160.0
1964-11-07,2100.0
1964-11-08,1940.0
1964-11-09,2080.0
1964-11-10,2090.0
1964-11-11,2040.0
1964-11-12,2180.0
1964-11-13,2220.0
1964-11-14,2830.0
1964-11-15,2680.0
1964-11-16,2510.0
1964-11-17,2340.0
1964-11-18,2700.0
1964-11-19,2520.0
1964-11-20,2470.0
1964-11-21,2810.00024
1964-11-22,2620.0
1964-11-23,2350.0
1964-11-24,2340.0
1964-11-25,2280.0
1964-11-26,2210.0
1964-11-27,2250.0
1964-11-28,2270.0
1964-11-29,2070.0
1964-11-30,2430.0
1964-12-01,2400.0
1964-12-02,2460.0
1964-12-03,2880.0
1964-12-04,2970.0
1964-12-05,3350.0
1964-12-06,3190.0
1964-12-07,3540.0
1964-12-08,3480.0
1964-12-09,3430.0
1964-12-10,3550.0
1964-12-11,2300.0
1964-12-12,2160.0
1964-12-13,2470.0
1964-12-14,3530.0
1964-12-15,3350.0
1964-12-16,3190.0
1964-12-17,3220.0
1964-12-18,3490.0
1964-12-19,3360.0
1964-12-20,3070.0
1964-12-21,3310.0
1964-12-22,3060.00024
1964-12-23,3050.0
1964-12-24,3330.0
1964-12-25,2840.0
1964-12-26,3060.00024
1964-12-27,3110.0
1964-12-28,3630.0
1964-12-29,3680.0
1964-12-30,3690.0
1964-12-31,3540.0
1965-01-01,3120.0
1965-01-02,3310.0
1965-01-03,3100.0
1965-01-04,3600.0
1965-01-05,3560.0
1965-01-06,3280.0
1965-01-07,3550.0
1965-01-08,3580.0
1965-01-09,3560.0
1965-01-10,3170.0
1965-01-11,3660.0
1965-01-12,3030.0
1965-01-13,2930.0
1965-01-14,1440.0
1965-01-15,1800.0
1965-01-16,3970.0
1965-01-17,3260.0
1965-01-18,4130.0
1965-01-19,4110.0
1965-01-20,4050.0
1965-01-21,4080.0
1965-01-22,4060.0
1965-01-23,3830.0
1965-01-24,3440.0
1965-01-25,3840.0
1965-01-26,4080.0
1965-01-27,4220.0
1965-01-28,4030.0
1965-01-29,3940.0
1965-01-30,3610.0
1965-01-31,3340.0
1965-02-01,3940.0
1965-02-02,4150.0
1965-02-03,3930.0
1965-02-04,4060.0
1965-02-05,4100.0
1965-02-06,4070.0
1965-02-07,3750.0
1965-02-08,4140.0
1965-02-09,4140.0
1965-02-10,4130.0
1965-02-11,4040.0
1965-02-12,3990.0
1965-02-13,3940.0
1965-02-14,3750.0
1965-02-15,4140.0
1965-02-16,4260.0
1965-02-17,4020.0
1965-02-18,3830.0
1965-02-19,4050.0
1965-02-20,3910.0
1965-02-21,3580.0
1965-02-22,3810.0
1965-02-23,4070.0
1965-02-24,2930.0
1965-02-25,2220.0
1965-02-26,3310.0
1965-02-27,3770.0
1965-02-28,3440.0
1965-03-01,3160.0
1965-03-02,3440.0
1965-03-03,3300.0
1965-03-04,3120.0
1965-03-05,3080.0
1965-03-06,2860.0
1965-03-07,2520.0
1965-03-08,3340.0
1965-03-09,4060.0
1965-03-10,4100.0
1965-03-11,4090.0
1965-03-12,4100.0
1965-03-13,4060.0
1965-03-14,3480.0
1965-03-15,3970.0
1965-03-16,4080.0
1965-03-17,3870.0
1965-03-18,3860.0
1965-03-19,4060.0
1965-03-20,4050.0
1965-03-21,4060.0
1965-03-22,4060.0
1965-03-23,4070.0
1965-03-24,4070.0
1965-03-25,4090.0
1965-03-26,4110.0
1965-03-27,4060.0
1965-03-28,3900.0
1965-03-29,4070.0
1965-03-30,4080.0
1965-03-31,4080.0
1965-04-01,3380.0
1965-04-02,4060.0
1965-04-03,3940.0
1965-04-04,4080.0
1965-04-05,4070.0
1965-04-06,4040.0
1965-04-07,3880.0
1965-04-08,3730.0
1965-04-09,3430.0
1965-04-10,2610.0
1965-04-11,3180.0
1965-04-12,3510.0
1965-04-13,3780.0
1965-04-14,3770.0
1965-04-15,3790.0
1965-04-16,3430.0
1965-04-17,3400.0
1965-04-18,3540.0
1965-04-19,3560.0
1965-04-20,3560.0
1965-04-21,3510.0
1965-04-22,3530.0
1965-04-23,3570.0
1965-04-24,3580.0
1965-04-25,3620.0
1965-04-26,3500.0
1965-04-27,2100.0
1965-04-28,1910.0
1965-04-29,1900.0
1965-04-30,2650.0
1965-05-01,880.0
1965-05-02,845.0
1965-05-03,865.0
1965-05-04,1110.0
1965-05-05,1250.0
1965-05-06,1260.0
1965-05-07,2280.0
1965-05-08,885.0
1965-05-09,584.0
1965-05-10,830.0
1965-05-11,533.0
1965-05-12,496.0
1965-05-13,545.0
1965-05-14,480.0
1965-05-15,460.0
1965-05-16,1680.0
1965-05-17,666.0
1965-05-18,998.0
1965-05-19,1830.0
1965-05-20,1600.0
1965-05-21,1430.0
1965-05-22,1570.0
1965-05-23,1620.0
1965-05-24,1390.0
1965-05-25,1370.0
1965-05-26,1380.0
1965-05-27,1420.0
1965-05-28,1150.0
1965-05-29,1060.0
1965-05-30,520.0
1965-05-31,445.0
1965-06-01,476.0
1965-06-02,695.0
1965-06-03,690.0
1965-06-04,685.0
1965-06-05,960.0
1965-06-06,850.0
1965-06-07,1830.0
1965-06-08,2580.0
1965-06-09,2300.0
1965-06-10,2590.0
1965-06-11,1870.0
1965-06-12,1260.0
1965-06-13,1310.0
1965-06-14,1660.0
1965-06-15,1740.0
1965-06-16,2180.0
1965-06-17,1560.0
1965-06-18,1710.0
1965-06-19,2080.0
1965-06-20,464.0
1965-06-21,1390.0
1965-06-22,1940.0
1965-06-23,2180.0
1965-06-24,2220.0
1965-06-25,1860.0
1965-06-26,765.000061
1965-06-27,940.0
1965-06-28,720.0
1965-06-29,705.0
1965-06-30,950.0
1965-07-01,529.0
1965-07-02,476.0
1965-07-03,425.0
1965-07-04,488.0
1965-07-05,421.0
1965-07-06,468.0
1965-07-07,383.0
1965-07-08,611.0
1965-07-09,391.0
1965-07-10,472.0
1965-07-11,410.0
1965-07-12,387.0
1965-07-13,387.0
1965-07-14,387.0
1965-07-15,383.0
1965-07-16,865.0
1965-07-17,441.0
1965-07-18,380.0
1965-07-19,657.0
1965-07-20,441.0
1965-07-21,410.0
1965-07-22,425.0
1965-07-23,421.0
1965-07-24,410.0
1965-07-25,433.0
1965-07-26,417.0
1965-07-27,414.0
1965-07-28,410.0
1965-07-29,406.0
1965-07-30,998.0
1965-07-31,545.0
1965-08-01,406.0
1965-08-02,414.0
1965-08-03,652.0
1965-08-04,452.0
1965-08-05,1540.0
1965-08-06,484.0
1965-08-07,402.0
1965-08-08,402.0
1965-08-09,414.0
1965-08-10,402.0
1965-08-11,406.0
1965-08-12,398.0
1965-08-13,429.0
1965-08-14,398.0
1965-08-15,398.0
1965-08-16,398.0
1965-08-17,460.0
1965-08-18,472.0
1965-08-19,529.0
1965-08-20,606.0
1965-08-21,398.0
1965-08-22,395.0
1965-08-23,437.0
1965-08-24,588.0
1965-08-25,402.0
1965-08-26,395.0
1965-08-27,395.0
1965-08-28,395.0
1965-08-29,391.0
1965-08-30,433.0
1965-08-31,1120.0
1965-09-01,579.0
1965-09-02,421.0
1965-09-03,496.0
1965-09-04,387.0
1965-09-05,383.0
1965-09-06,387.0
1965-09-07,433.0
1965-09-08,376.0
1965-09-09,383.0
1965-09-10,383.0
1965-09-11,584.0
1965-09-12,383.0
1965-09-13,395.0
1965-09-14,383.0
1965-09-15,380.0
1965-09-16,380.0
1965-09-17,875.0
1965-09-18,1230.0
1965-09-19,1220.0
1965-09-20,1230.0
1965-09-21,998.0
1965-09-22,1340.0
1965-09-23,1260.0
1965-09-24,597.0
1965-09-25,730.0
1965-09-26,935.0
1965-09-27,1230.0
1965-09-28,1170.0
1965-09-29,1340.0
1965-09-30,1140.0
1965-10-01,1330.0
1965-10-02,487.0
1965-10-03,536.0
1965-10-04,485.0
1965-10-05,988.0
1965-10-06,804.0
1965-10-07,810.0
1965-10-08,1350.0
1965-10-09,1580.0
1965-10-10,1270.0
1965-10-11,1720.0
1965-10-12,1770.0
1965-10-13,1600.0
1965-10-14,1610.0
1965-10-15,1790.0
1965-10-16,1540.0
1965-10-17,1880.0
1965-10-18,1660.0
1965-10-19,1800.0
1965-10-20,1740.0
1965-10-21,1850.0
1965-10-22,1900.0
1965-10-23,1880.0
1965-10-24,2220.0
1965-10-25,439.0
1965-10-26,425.0
1965-10-27,859.0
1965-10-28,727.0
1965-10-29,888.0
1965-10-30,858.0
1965-10-31,830.0
1965-11-01,1260.0
1965-11-02,1290.0
1965-11-03,1270.0
1965-11-04,1020.0
1965-11-05,1290.0
1965-11-06,1350.0
1965-11-07,1250.0
1965-11-08,1280.00012
1965-11-09,1300.0
1965-11-10,1280.00012
1965-11-11,1280.00012
1965-11-12,1470.0
1965-11-13,2250.0
1965-11-14,2370.0
1965-11-15,2320.0
1965-11-16,1520.0
1965-11-17,2550.0
1965-11-18,2750.0
1965-11-19,2750.0
1965-11-20,2740.0
1965-11-21,2740.0
1965-11-22,2740.0
1965-11-23,2750.0
1965-11-24,2720.0
1965-11-25,2580.0
1965-11-26,2550.0
1965-11-27,2580.0
1965-11-28,2490.0
1965-11-29,2550.0
1965-11-30,2440.0
1965-12-01,2600.0
1965-12-02,2530.0
1965-12-03,2430.0
1965-12-04,2540.0
1965-12-05,2380.0
1965-12-06,2450.0
1965-12-07,2510.0
1965-12-08,2520.0
1965-12-09,2530.0
1965-12-10,2530.0
1965-12-11,2320.0
1965-12-12,725.0
1965-12-13,2490.0
1965-12-14,2500.0
1965-12-15,2290.0
1965-12-16,2330.0
1965-12-17,2300.0
1965-12-18,2300.0
1965-12-19,2250.0
1965-12-20,2270.0
1965-12-21,2550.0
1965-12-22,2000.0
1965-12-23,849.0
1965-12-24,695.0
1965-12-25,799.0
1965-12-26,671.0
1965-12-27,898.0
1965-12-28,764.0
1965-12-29,767.0
1965-12-30,773.0
1965-12-31,753.0
1966-01-01,1160.0
1966-01-02,795.0
1966-01-03,1170.0
1966-01-04,1090.0
1966-01-05,1180.0
1966-01-06,1200.0
1966-01-07,1200.0
1966-01-08,1220.0
1966-01-09,978.0
1966-01-10,1250.0
1966-01-11,1100.0
1966-01-12,1230.0
1966-01-13,1210.0
1966-01-14,1190.0
1966-01-15,1200.0
1966-01-16,1030.0
1966-01-17,1210.0
1966-01-18,1200.0
1966-01-19,1200.0
1966-01-20,1280.00012
1966-01-21,1030.0
1966-01-22,824.0
1966-01-23,933.0
1966-01-24,1340.0
1966-01-25,1340.0
1966-01-26,1320.0
1966-01-27,1600.0
1966-01-28,1280.00012
1966-01-29,1020.0
1966-01-30,829.0
1966-01-31,1460.0
1966-02-01,1300.0
1966-02-02,1320.0
1966-02-03,1270.0
1966-02-04,1330.0
1966-02-05,1360.0
1966-02-06,1260.0
1966-02-07,1320.0
1966-02-08,1340.0
1966-02-09,1520.0
1966-02-10,1290.0
1966-02-11,1500.0
1966-02-12,1270.0
1966-02-13,761.0
1966-02-14,1510.0
1966-02-15,991.0
1966-02-16,1130.0
1966-02-17,1320.0
1966-02-18,1400.0
1966-02-19,1680.0
1966-02-20,769.0
1966-02-21,1560.0
1966-02-22,680.0
1966-02-23,1450.0
1966-02-24,1500.0
1966-02-25,1290.0
1966-02-26,1590.0
1966-02-27,1090.0
1966-02-28,1410.0
1966-03-01,1310.0
1966-03-02,1340.0
1966-03-03,1360.0
1966-03-04,1320.0
1966-03-05,1270.0
1966-03-06,1280.00012
1966-03-07,1310.0
1966-03-08,1430.0
1966-03-09,1430.0
1966-03-10,1430.0
1966-03-11,1290.0
1966-03-12,1420.0
1966-03-13,1220.0
1966-03-14,1460.0
1966-03-15,1530.00012
1966-03-16,1490.0
1966-03-17,1600.0
1966-03-18,1160.0
1966-03-19,662.0
1966-03-20,492.0
1966-03-21,775.0
1966-03-22,1120.0
1966-03-23,854.0
1966-03-24,985.0
1966-03-25,1030.0
1966-03-26,530.0
1966-03-27,510.0
1966-03-28,959.0
1966-03-29,913.0
1966-03-30,1080.0
1966-03-31,1150.0
1966-04-01,1070.0
1966-04-02,839.0
1966-04-03,1930.0
1966-04-04,2370.0
1966-04-05,2750.0
1966-04-06,2480.0
1966-04-07,2320.0
1966-04-08,2520.0
1966-04-09,2190.0
1966-04-10,1640.0
1966-04-11,2520.0
1966-04-12,2690.0
1966-04-13,2270.0
1966-04-14,2250.0
1966-04-15,2270.0
1966-04-16,2260.0
1966-04-17,741.0
1966-04-18,2390.0
1966-04-19,2340.0
1966-04-20,2450.0
1966-04-21,2300.0
1966-04-22,2450.0
1966-04-23,2570.0
1966-04-24,2260.0
1966-04-25,2160.0
1966-04-26,2330.0
1966-04-27,2370.0
1966-04-28,2450.0
1966-04-29,2480.0
1966-04-30,1870.0
1966-05-01,1130.0
1966-05-02,2280.0
1966-05-03,2140.0
1966-05-04,1700.0
1966-05-05,1640.0
1966-05-06,1060.0
1966-05-07,685.0
1966-05-08,464.0
1966-05-09,861.0
1966-05-10,1130.0
1966-05-11,2050.0
1966-05-12,1590.0
1966-05-13,1410.0
1966-05-14,473.0
1966-05-15,488.0
1966-05-16,2000.0
1966-05-17,2200.0
1966-05-18,1160.0
1966-05-19,1670.0
1966-05-20,1910.0
1966-05-21,976.0
1966-05-22,523.0
1966-05-23,1670.0
1966-05-24,1920.0
1966-05-25,933.0
1966-05-26,659.0
1966-05-27,1050.0
1966-05-28,1680.0
1966-05-29,1650.0
1966-05-30,1380.0
1966-05-31,1420.0
1966-06-01,1550.0
1966-06-02,1150.0
1966-06-03,1840.0
1966-06-04,1930.0
1966-06-05,1320.0
1966-06-06,1580.0
1966-06-07,1750.0
1966-06-08,1610.0
1966-06-09,1300.0
1966-06-10,1580.0
1966-06-11,1050.0
1966-06-12,1410.0
1966-06-13,1540.0
1966-06-14,1690.0
1966-06-15,1760.0
1966-06-16,1790.0
1966-06-17,1970.0
1966-06-18,1450.0
1966-06-19,1310.0
1966-06-20,1470.0
1966-06-21,1280.00012
1966-06-22,1610.0
1966-06-23,1670.0
1966-06-24,1640.0
1966-06-25,1690.0
1966-06-26,1640.0
1966-06-27,1670.0
1966-06-28,1880.0
1966-06-29,1770.0
1966-06-30,1800.0
1966-07-01,1720.0
1966-07-02,1730.0
1966-07-03,1570.0
1966-07-04,1770.0
1966-07-05,1590.0
1966-07-06,1710.0
1966-07-07,1690.0
1966-07-08,1560.0
1966-07-09,1600.0
1966-07-10,1600.0
1966-07-11,1690.0
1966-07-12,1550.0
1966-07-13,1620.0
1966-07-14,1790.0
1966-07-15,1680.0
1966-07-16,1580.0
1966-07-17,1680.0
1966-07-18,1900.0
1966-07-19,1730.0
1966-07-20,1810.0
1966-07-21,1840.0
1966-07-22,1890.0
1966-07-23,1710.0
1966-07-24,1590.0
1966-07-25,1780.0
1966-07-26,1630.0
1966-07-27,1800.0
1966-07-28,1660.0
1966-07-29,1820.0
1966-07-30,1640.0